Flag for Germany Weather past 2 weeks in Coesfeld, North Rhine-Westphalia, Germany

Now
55 °F

Cool.


Feels Like: 53 °F
Forecast: 50 / 58 °F
Wind: 10 mph from Southwest

Location: Rheine-Bentlage

Current Time: Sep 4, 2015 at 11:30:18 PM

Latest Report: Sep 4, 2015 at 10:20 PM


Visibility: N/A

Pressure: 29.83 "Hg

Humidity: 94%

Dew point: 54 °F

Location of CoesfeldLocation

Historic Weather in Coesfeld — Graph

°F

Coesfeld temperature yesterday

Maximum temperature yesterday: 64 °F (at 2:20 PM)
Minimum temperature yesterday: 48 °F (at 7:20 AM)
Average temperature yesterday: 56 °F

Past Weeks' High & Low Weather Summary

 TemperatureHumidityPressure
High86 °F (Aug 31, 4:20 PM)100% (Aug 21, 2:20 AM)30.27 "Hg (Aug 21, 2:20 AM)
Low48 °F (Aug 29, 4:20 AM)34% (Aug 22, 4:20 PM)29.50 "Hg (Aug 24, 6:20 PM)
Average64 °F76%29.94 "Hg
* Reported Aug 20 9:20 PM — Sep 4 9:20 PM, Coesfeld, Weather by CustomWeather, © 2015

Note: Actual official high and low records may vary slightly from our data, if they occured in-between our weather recording intervals... More about our weather records

Advertising

Coesfeld weather history for previous 24 hours

 ConditionsComfort  
Time TempWeatherWind HumidityBarometerVisibility
9:20 PM
Fri, Sep 4
55 °FCool.10 mph88%29.83 "HgN/A
8:20 PM55 °FCool.12 mph88%29.83 "HgN/A
7:20 PM55 °FCool.12 mph88%29.83 "HgN/A
6:20 PM59 °FCool.12 mph77%29.83 "HgN/A
5:20 PM61 °FCool.14 mph68%29.83 "HgN/A
4:20 PM63 °FMild.16 mph59%29.86 "HgN/A
3:20 PM61 °FCool.13 mph68%29.86 "HgN/A
2:20 PM63 °FMild.14 mph68%29.89 "HgN/A
1:20 PM61 °FCool.15 mph68%29.89 "HgN/A
12:20 PM59 °FBroken clouds.14 mph72%29.89 "HgN/A
11:20 AM59 °FBroken clouds.12 mph77%29.89 "HgN/A
10:20 AM57 °FBroken clouds.10 mph77%29.89 "HgN/A
9:20 AM55 °FPartly sunny.8 mph77%29.89 "HgN/A
8:20 AM54 °FBroken clouds.7 mph82%29.89 "HgN/A
7:20 AM52 °FPartly cloudy.6 mph88%29.89 "HgN/A
6:20 AM52 °FPassing clouds.5 mph88%29.89 "HgN/A
5:20 AM52 °FPassing clouds.5 mph88%29.92 "HgN/A
4:20 AM52 °FCool.5 mph94%29.92 "HgN/A
3:20 AM52 °FCool.5 mph94%29.92 "HgN/A
2:20 AM54 °FCool.5 mph88%29.92 "HgN/A
1:20 AM54 °FCool.3 mph88%29.92 "HgN/A
12:20 AM54 °FCool.5 mph88%29.92 "HgN/A
11:20 PM
Thu, Sep 3
52 °FCool.5 mph88%29.92 "HgN/A
Weather by CustomWeather, © 2015

See weather overviewHow to use our weather pages